Date String (YYYY-MM-DD hh:mm:ss) UTC,Instrument flags,absolute air pressure of the measurement (hPa),sample flow rate (lpm),inlet stack bypass flow (lpm),air temperature of the measurement (°C),ambient temperature measured by the external sensor (°C),aerosol sample conditioner tube jacket temperature (°C),OPC LED temperature (°C),internal box temperature (°C),relative humidity of the measurement (%),span deviation,mass concentration of particles derived from Lorenz-Mie calculation of OPC scattering (μg/m³),mass concentration of particles derived from Lorenz-Mie calculation of OPC scattering (μg/m³),mass concentration of particles derived from Lorenz-Mie calculation of OPC scattering (μg/m³)
DateTimeUTC,F1_M11,P_M11,Q1_M11,Q2_M11,T1_M11,T2_M11,T3_M11,T4_M11,T5_M11,U1_M11,ZSPAN_M11,X0_M11,X2_M11,X1_M11
2024-03-03 04:00:00,SystemResetWarning,0811.1,4.99,000.00,023.4,022.5,000.0,031.9,025.1,13.1,0000.0,0011.83,0002.30,0000.79
2024-03-03 04:01:00,SystemResetWarning,0811.1,4.99,000.00,023.4,022.5,000.0,031.9,025.1,13.2,0000.0,0012.73,0002.37,0000.78
2024-03-03 04:02:00,SystemResetWarning,0811.1,5.01,000.00,023.4,022.5,000.0,031.9,025.2,13.2,0000.0,0012.92,0002.39,0000.80
2024-03-03 04:03:00,SystemResetWarning,0811.1,5.01,000.00,023.4,022.5,000.0,031.9,025.1,13.2,0000.0,0013.81,0002.36,0000.79
2024-03-03 04:04:00,SystemResetWarning,0811.1,5.00,000.00,023.4,022.5,000.0,031.9,025.1,13.1,0000.0,0013.74,0002.34,0000.79
2024-03-03 04:05:00,SystemResetWarning,0811.1,5.00,000.00,023.4,022.5,000.0,031.8,025.1,13.3,0000.0,0013.44,0002.34,0000.80
2024-03-03 04:06:00,SystemResetWarning,0811.0,4.99,000.00,023.4,022.5,000.0,031.8,025.1,13.4,0000.0,0013.79,0002.36,0000.79
2024-03-03 04:07:00,SystemResetWarning,0810.9,5.01,000.00,023.4,022.4,000.0,031.8,025.1,13.6,0000.0,0013.73,0002.44,0000.80
2024-03-03 04:08:00,SystemResetWarning,0810.9,5.01,000.00,023.3,022.4,000.0,031.8,025.1,13.6,0000.0,0015.42,0002.55,0000.80
2024-03-03 04:09:00,SystemResetWarning,0811.0,5.01,000.00,023.3,022.4,000.0,031.8,025.1,13.7,0000.0,0017.07,0002.60,0000.80
2024-03-03 04:10:00,SystemResetWarning,0811.1,5.00,000.00,023.3,022.4,000.0,031.8,025.1,13.7,0000.0,0016.73,0002.67,0000.79
2024-03-03 04:11:00,SystemResetWarning,0811.1,5.00,000.00,023.3,022.4,000.0,031.8,025.1,13.7,0000.0,0016.75,0002.81,0000.79
2024-03-03 04:12:00,SystemResetWarning,0811.0,5.00,000.00,023.3,022.4,000.0,031.8,025.1,13.8,0000.0,0016.12,0002.87,0000.80
2024-03-03 04:13:00,SystemResetWarning,0811.1,5.00,000.00,023.3,022.4,000.0,031.8,025.1,13.8,0000.0,0015.87,0002.94,0000.80
2024-03-03 04:14:00,SystemResetWarning,0811.1,5.00,000.00,023.3,022.4,000.0,031.8,025.0,13.9,0000.0,0014.78,0002.95,0000.81
2024-03-03 04:15:00,SystemResetWarning,0811.1,5.00,000.00,023.3,022.4,000.0,031.8,025.0,14.0,0000.0,0015.31,0002.97,0000.83
2024-03-03 04:16:00,SystemResetWarning,0811.1,5.00,000.00,023.3,022.4,000.0,031.8,025.1,14.2,0000.0,0015.60,0002.99,0000.83
2024-03-03 04:17:00,SystemResetWarning,0811.1,5.00,000.00,023.3,022.3,000.0,031.7,025.0,14.2,0000.0,0015.57,0002.97,0000.83
2024-03-03 04:18:00,SystemResetWarning,0811.1,5.00,000.00,023.3,022.3,000.0,031.7,025.0,14.4,0000.0,0015.55,0002.89,0000.82
2024-03-03 04:19:00,SystemResetWarning,0811.1,5.01,000.00,023.2,022.3,000.0,031.7,025.0,14.4,0000.0,0015.87,0002.83,0000.82
2024-03-03 04:20:00,SystemResetWarning,0811.2,5.00,000.00,023.2,022.3,000.0,031.7,024.9,14.5,0000.0,0015.09,0002.75,0000.81
2024-03-03 04:21:00,SystemResetWarning,0811.2,5.00,000.00,023.2,022.3,000.0,031.7,024.9,14.5,0000.0,0016.29,0002.64,0000.81
2024-03-03 04:22:00,SystemResetWarning,0811.3,5.00,000.00,023.2,022.3,000.0,031.7,025.0,14.5,0000.0,0017.05,0002.55,0000.83
2024-03-03 04:23:00,SystemResetWarning,0811.5,5.00,000.00,023.2,022.3,000.0,031.7,024.9,14.6,0000.0,0016.71,0002.51,0000.84
2024-03-03 04:24:00,SystemResetWarning,0811.6,5.00,000.00,023.2,022.3,000.0,031.7,024.9,14.7,0000.0,0017.27,0002.45,0000.85
2024-03-03 04:25:00,SystemResetWarning,0811.6,5.01,000.00,023.2,022.3,000.0,031.7,024.9,14.8,0000.0,0017.78,0002.47,0000.84
2024-03-03 04:26:00,SystemResetWarning,0811.6,5.00,000.00,023.2,022.3,000.0,031.7,024.9,14.9,0000.0,0016.57,0002.42,0000.83
2024-03-03 04:27:00,SystemResetWarning,0811.6,4.98,000.00,023.1,022.2,000.0,031.6,024.9,14.9,0000.0,0016.68,0002.45,0000.83
2024-03-03 04:28:00,SystemResetWarning,0811.6,4.99,000.00,023.1,022.2,000.0,031.6,024.9,15.0,0000.0,0017.30,0002.48,0000.83
2024-03-03 04:29:00,SystemResetWarning,0811.6,5.02,000.00,023.1,022.2,000.0,031.6,024.9,15.0,0000.0,0017.29,0002.55,0000.83
2024-03-03 04:30:00,SystemResetWarning,0811.6,5.00,000.00,023.1,022.2,000.0,031.6,024.9,15.0,0000.0,0016.05,0002.57,0000.83
2024-03-03 04:31:00,SystemResetWarning,0811.6,4.99,000.00,023.1,022.2,000.0,031.6,024.9,15.1,0000.0,0015.60,0002.63,0000.83
2024-03-03 04:32:00,SystemResetWarning,0811.7,5.00,000.00,023.1,022.2,000.0,031.6,024.9,15.2,0000.0,0015.00,0002.67,0000.83
2024-03-03 04:33:00,SystemResetWarning,0811.6,5.01,000.00,023.1,022.2,000.0,031.6,024.9,15.3,0000.0,0013.91,0002.64,0000.81
2024-03-03 04:34:00,SystemResetWarning,0811.6,5.01,000.00,023.1,022.2,000.0,031.6,024.9,15.3,0000.0,0015.01,0002.62,0000.80
2024-03-03 04:35:00,SystemResetWarning,0811.6,5.00,000.00,023.1,022.2,000.0,031.6,024.9,15.3,0000.0,0015.44,0002.57,0000.79
2024-03-03 04:36:00,SystemResetWarning,0811.7,5.00,000.00,023.1,022.2,000.0,031.6,024.9,15.3,0000.0,0015.54,0002.59,0000.79
2024-03-03 04:37:00,SystemResetWarning,0811.6,4.99,000.00,023.1,022.2,000.0,031.6,024.9,15.4,0000.0,0016.29,0002.57,0000.79
2024-03-03 04:38:00,SystemResetWarning,0811.5,4.99,000.00,023.1,022.2,000.0,031.6,024.9,15.5,0000.0,0016.43,0002.53,0000.79
2024-03-03 04:39:00,SystemResetWarning,0811.5,5.01,000.00,023.1,022.2,000.0,031.6,024.9,15.6,0000.0,0017.09,0002.53,0000.80
2024-03-03 04:40:00,SystemResetWarning,0811.4,5.01,000.00,023.1,022.2,000.0,031.6,024.9,15.4,0000.0,0017.57,0002.55,0000.79
2024-03-03 04:41:00,SystemResetWarning,0811.3,5.00,000.00,023.1,022.2,000.0,031.6,024.9,15.5,0000.0,0017.79,0002.57,0000.80
2024-03-03 04:42:00,SystemResetWarning,0811.3,4.99,000.00,023.1,022.2,000.0,031.6,024.9,15.6,0000.0,0017.32,0002.57,0000.81
2024-03-03 04:43:00,SystemResetWarning,0811.2,4.99,000.00,023.1,022.2,000.0,031.6,024.9,15.7,0000.0,0016.46,0002.53,0000.80
2024-03-03 04:44:00,SystemResetWarning,0811.4,5.02,000.00,023.1,022.2,000.0,031.6,024.9,15.8,0000.0,0017.41,0002.60,0000.81
2024-03-03 04:45:00,SystemResetWarning,0811.5,4.99,000.00,023.1,022.2,000.0,031.6,024.9,15.8,0000.0,0018.18,0002.60,0000.82
2024-03-03 04:46:00,SystemResetWarning,0811.5,4.99,000.00,023.1,022.2,000.0,031.6,024.9,16.0,0000.0,0017.44,0002.61,0000.81
2024-03-03 04:47:00,SystemResetWarning,0811.4,5.00,000.00,023.1,022.2,000.0,031.6,024.9,16.2,0000.0,0017.16,0002.53,0000.80
2024-03-03 04:48:00,SystemResetWarning,0811.4,5.00,000.00,023.1,022.2,000.0,031.6,024.9,16.4,0000.0,0015.78,0002.44,0000.79
2024-03-03 04:49:00,SystemResetWarning,0811.5,5.00,000.00,023.1,022.2,000.0,031.5,024.9,16.6,0000.0,0018.20,0002.45,0000.79
2024-03-03 04:50:00,SystemResetWarning,0811.5,5.00,000.00,023.0,022.1,000.0,031.5,024.8,16.9,0000.0,0017.08,0002.43,0000.78
2024-03-03 04:51:00,SystemResetWarning,0811.5,4.99,000.00,023.0,022.1,000.0,031.5,024.8,17.1,0000.0,0017.14,0002.35,0000.78
2024-03-03 04:52:00,SystemResetWarning,0811.3,4.98,000.00,023.0,022.1,000.0,031.5,024.8,17.5,0000.0,0017.94,0002.32,0000.77
2024-03-03 04:53:00,SystemResetWarning,0811.3,5.01,000.00,023.0,022.0,000.0,031.5,024.7,17.7,0000.0,0018.05,0002.23,0000.77
2024-03-03 04:54:00,SystemResetWarning,0811.2,5.01,000.00,023.0,022.0,000.0,031.5,024.7,17.8,0000.0,0020.01,0002.31,0000.79
2024-03-03 04:55:00,SystemResetWarning,0811.3,5.00,000.00,022.9,022.0,000.0,031.5,024.6,18.0,0000.0,0019.61,0002.30,0000.78
2024-03-03 04:56:00,SystemResetWarning,0811.3,5.00,000.00,022.9,021.9,000.0,031.5,024.6,18.0,0000.0,0017.45,0002.26,0000.77
2024-03-03 04:57:00,SystemResetWarning,0811.3,5.00,000.00,022.9,021.9,000.0,031.4,024.6,18.1,0000.0,0016.92,0002.32,0000.78
2024-03-03 04:58:00,SystemResetWarning,0811.3,5.00,000.00,022.8,021.8,000.0,031.4,024.6,18.2,0000.0,0016.75,0002.34,0000.79
2024-03-03 04:59:00,SystemResetWarning,0811.4,5.00,000.00,022.8,021.8,000.0,031.4,024.5,18.2,0000.0,0017.71,0002.42,0000.80
